When you browse on this site, cookies collect data to enhance your experience and personalize the content and advertising you see.
Visit our Privacy Policy to learn more. By continuing to use the site, you agree to this use of cookies and data.
  • In Sweden
  • List of Countries
  • For 7 days
  • Water Temperature
  • Weather Map
  • Weather Widgets
  • user-avatar
    Login

    Hourly Weather Sydney

    Today, 28 May, Thursday

    Time Temperature Precipitation Wind Pressure Humidity
    00:00 +13°C° 0 mm 2 mps 764 mmHg 92%
    01:00 +13°C° 0 mm 2 mps 764 mmHg 93%
    02:00 +13°C° 0 mm 2 mps 764 mmHg 93%
    03:00 +12°C° 0 mm 2 mps 764 mmHg 93%
    04:00 +12°C° 0 mm 2 mps 764 mmHg 93%
    05:00 +11°C° 0 mm 3 mps 764 mmHg 93%
    06:00 +11°C° 0 mm 3 mps 764 mmHg 92%
    07:00 +11°C° 0 mm 3 mps 765 mmHg 91%
    08:00 +12°C° 0 mm 3 mps 765 mmHg 83%
    09:00 +14°C° 0 mm 3 mps 765 mmHg 75%
    10:00 +17°C° 0 mm 2 mps 765 mmHg 65%
    11:00 +19°C° 0 mm 2 mps 764 mmHg 59%
    12:00 +20°C° 0 mm 2 mps 764 mmHg 52%
    13:00 +23°C° 0 mm 2 mps 763 mmHg 45%
    14:00 +21°C° 0 mm 2 mps 763 mmHg 49%
    15:00 +21°C° 0 mm 2 mps 763 mmHg 53%
    16:00 +20°C° 0 mm 2 mps 764 mmHg 56%
    17:00 +19°C° 0.1 mm 2 mps 764 mmHg 63%
    18:00 +17°C° 0.1 mm 3 mps 765 mmHg 70%
    19:00 +16°C° 0.1 mm 3 mps 765 mmHg 77%
    20:00 +16°C° 0.2 mm 3 mps 766 mmHg 78%
    21:00 +14°C° 0.2 mm 4 mps 766 mmHg 80%
    22:00 +13°C° 0.2 mm 4 mps 767 mmHg 81%
    23:00 +13°C° 0.2 mm 4 mps 767 mmHg 80%

    Tomorrow, 29 May, Friday

    Time Temperature Precipitation Wind Pressure Humidity
    00:00 +12°C° 0.2 mm 4 mps 767 mmHg 79%
    01:00 +12°C° 0.2 mm 4 mps 767 mmHg 78%
    02:00 +12°C° 0.2 mm 4 mps 767 mmHg 79%
    03:00 +11°C° 0.2 mm 4 mps 767 mmHg 80%
    04:00 +11°C° 0.2 mm 4 mps 767 mmHg 81%
    05:00 +11°C° 0.3 mm 4 mps 767 mmHg 83%
    06:00 +11°C° 0.3 mm 4 mps 768 mmHg 84%
    07:00 +11°C° 0.3 mm 3 mps 768 mmHg 85%
    08:00 +12°C° 0.3 mm 3 mps 769 mmHg 79%
    09:00 +14°C° 0.3 mm 3 mps 769 mmHg 74%
    10:00 +17°C° 0.3 mm 3 mps 769 mmHg 69%
    11:00 +18°C° 0.4 mm 3 mps 769 mmHg 69%
    12:00 +18°C° 0.4 mm 3 mps 768 mmHg 68%
    13:00 +19°C° 0.4 mm 3 mps 768 mmHg 68%
    14:00 +19°C° 0.2 mm 3 mps 768 mmHg 71%
    15:00 +18°C° 0.2 mm 3 mps 768 mmHg 74%
    16:00 +18°C° 0.2 mm 2 mps 768 mmHg 77%
    17:00 +17°C° 0.1 mm 2 mps 768 mmHg 79%
    18:00 +16°C° 0.1 mm 2 mps 769 mmHg 82%
    19:00 +16°C° 0.1 mm 2 mps 769 mmHg 84%
    20:00 +15°C° 0 mm 1 mps 770 mmHg 85%
    21:00 +15°C° 0 mm 1 mps 770 mmHg 87%
    22:00 +15°C° 0 mm 1 mps 770 mmHg 88%
    23:00 +15°C° 0 mm 1 mps 770 mmHg 88%

    Day after tomorrow, 30 May, Saturday

    Time Temperature Precipitation Wind Pressure Humidity
    00:00 +14°C° 0 mm 1 mps 770 mmHg 89%
    01:00 +14°C° 0 mm 1 mps 769 mmHg 89%
    02:00 +14°C° 0 mm 1 mps 769 mmHg 90%
    03:00 +14°C° 0 mm 2 mps 769 mmHg 90%
    04:00 +13°C° 0 mm 2 mps 769 mmHg 91%
    05:00 +13°C° 0 mm 2 mps 769 mmHg 91%
    06:00 +13°C° 0 mm 2 mps 769 mmHg 91%
    07:00 +12°C° 0 mm 2 mps 770 mmHg 92%
    08:00 +14°C° 0 mm 2 mps 770 mmHg 85%
    09:00 +16°C° 0 mm 2 mps 770 mmHg 78%
    10:00 +17°C° 0 mm 2 mps 769 mmHg 72%
    11:00 +18°C° 0 mm 3 mps 769 mmHg 65%
    12:00 +20°C° 0 mm 3 mps 768 mmHg 59%
    13:00 +21°C° 0 mm 4 mps 767 mmHg 52%
    14:00 +20°C° 0 mm 4 mps 767 mmHg 55%
    15:00 +20°C° 0 mm 5 mps 766 mmHg 57%
    16:00 +19°C° 0 mm 5 mps 766 mmHg 59%
    17:00 +17°C° 0 mm 5 mps 766 mmHg 66%
    18:00 +16°C° 0 mm 5 mps 766 mmHg 71%
    19:00 +15°C° 0 mm 5 mps 766 mmHg 77%
    20:00 +14°C° 0 mm 5 mps 766 mmHg 79%
    21:00 +14°C° 0 mm 5 mps 766 mmHg 81%
    22:00 +13°C° 0 mm 5 mps 766 mmHg 83%
    23:00 +13°C° 0 mm 5 mps 766 mmHg 84%

    31 May, Sunday

    Time Temperature Precipitation Wind Pressure Humidity
    00:00 +12°C° 0 mm 4 mps 765 mmHg 85%
    01:00 +12°C° 0 mm 3 mps 765 mmHg 86%
    02:00 +11°C° 0 mm 3 mps 765 mmHg 85%
    03:00 +11°C° 0 mm 3 mps 765 mmHg 85%
    04:00 +11°C° 0 mm 3 mps 764 mmHg 84%
    05:00 +11°C° 0 mm 3 mps 764 mmHg 83%
    06:00 +12°C° 0 mm 2 mps 764 mmHg 81%
    07:00 +12°C° 0 mm 2 mps 764 mmHg 80%
    08:00 +13°C° 0 mm 3 mps 764 mmHg 74%
    09:00 +16°C° 0 mm 3 mps 764 mmHg 68%
    10:00 +17°C° 0 mm 4 mps 764 mmHg 62%
    11:00 +18°C° 0 mm 3 mps 763 mmHg 58%
    12:00 +19°C° 0 mm 3 mps 763 mmHg 55%
    13:00 +20°C° 0 mm 3 mps 762 mmHg 52%
    14:00 +20°C° 0 mm 3 mps 762 mmHg 53%
    15:00 +20°C° 0 mm 2 mps 762 mmHg 53%
    16:00 +20°C° 0 mm 2 mps 761 mmHg 54%
    17:00 +19°C° 0.1 mm 3 mps 761 mmHg 57%
    18:00 +17°C° 0.1 mm 3 mps 761 mmHg 60%
    19:00 +15°C° 0.1 mm 4 mps 762 mmHg 63%
    20:00 +15°C° 0 mm 4 mps 761 mmHg 66%
    21:00 +14°C° 0 mm 4 mps 761 mmHg 69%
    22:00 +14°C° 0 mm 4 mps 761 mmHg 72%
    23:00 +14°C° 0 mm 4 mps 760 mmHg 73%

    1 June, Monday

    Time Temperature Precipitation Wind Pressure Humidity
    00:00 +13°C° 0 mm 5 mps 760 mmHg 73%
    01:00 +13°C° 0 mm 5 mps 759 mmHg 74%
    02:00 +13°C° 0 mm 5 mps 759 mmHg 73%
    03:00 +13°C° 0 mm 5 mps 758 mmHg 72%
    04:00 +13°C° 0 mm 5 mps 757 mmHg 71%
    05:00 +13°C° 0 mm 5 mps 757 mmHg 69%
    06:00 +13°C° 0 mm 6 mps 757 mmHg 67%
    07:00 +13°C° 0 mm 6 mps 757 mmHg 64%
    08:00 +14°C° 0 mm 6 mps 757 mmHg 58%
    09:00 +16°C° 0 mm 6 mps 757 mmHg 52%
    10:00 +17°C° 0 mm 6 mps 757 mmHg 46%
    11:00 +18°C° 0 mm 7 mps 756 mmHg 43%
    12:00 +20°C° 0 mm 7 mps 755 mmHg 40%
    13:00 +21°C° 0 mm 8 mps 755 mmHg 36%
    14:00 +18°C° 0 mm 8 mps 755 mmHg 42%
    15:00 +16°C° 0 mm 8 mps 756 mmHg 48%
    16:00 +13°C° 0 mm 9 mps 756 mmHg 55%
    17:00 +12°C° 0 mm 8 mps 757 mmHg 54%
    18:00 +11°C° 0 mm 8 mps 758 mmHg 53%
    19:00 +9°C° 0 mm 7 mps 759 mmHg 52%
    20:00 +9°C° 0 mm 7 mps 759 mmHg 53%
    21:00 +8°C° 0 mm 7 mps 760 mmHg 54%
    22:00 +7°C° 0 mm 8 mps 761 mmHg 54%
    23:00 +7°C° 0 mm 8 mps 761 mmHg 55%

    2 June, Tuesday

    Time Temperature Precipitation Wind Pressure Humidity
    00:00 +6°C° 0 mm 8 mps 761 mmHg 55%
    01:00 +6°C° 0 mm 8 mps 761 mmHg 55%
    02:00 +6°C° 0 mm 8 mps 762 mmHg 56%
    03:00 +6°C° 0 mm 7 mps 762 mmHg 56%
    04:00 +5°C° 0 mm 7 mps 762 mmHg 57%
    05:00 +5°C° 0 mm 7 mps 763 mmHg 59%
    06:00 +5°C° 0 mm 6 mps 763 mmHg 60%
    07:00 +5°C° 0 mm 6 mps 764 mmHg 61%
    08:00 +7°C° 0 mm 6 mps 764 mmHg 56%
    09:00 +9°C° 0 mm 6 mps 765 mmHg 51%
    10:00 +11°C° 0 mm 6 mps 765 mmHg 46%
    11:00 +13°C° 0 mm 5 mps 765 mmHg 43%
    12:00 +15°C° 0 mm 5 mps 765 mmHg 41%
    13:00 +17°C° 0 mm 4 mps 764 mmHg 38%
    14:00 +17°C° 0 mm 4 mps 765 mmHg 41%
    15:00 +17°C° 0 mm 4 mps 765 mmHg 44%
    16:00 +17°C° 0 mm 3 mps 765 mmHg 46%
    17:00 +14°C° 0 mm 4 mps 766 mmHg 51%
    18:00 +13°C° 0 mm 4 mps 767 mmHg 56%
    19:00 +12°C° 0 mm 5 mps 767 mmHg 61%
    20:00 +10°C° 0 mm 5 mps 768 mmHg 63%
    21:00 +11°C° 0 mm 4 mps 768 mmHg 66%
    22:00 +10°C° 0 mm 4 mps 769 mmHg 68%
    23:00 +10°C° 0 mm 4 mps 769 mmHg 70%
    Show more